Location: Meanaryar
(48.4161°N, 4.7315°W)
Time: 02:03:24
(UTC+00:00)

Lacrosse 4 Rocket - Pass Details

Date: 18 September 2020
Orbit: 543 x 615 km, 68.0° (Epoch: 29 October)

Event Time Altitude Azimuth Distance (km) Brightness Sun altitude
Rises 20:57:20 0° 335° (NNW) 2,716 5.8 -24.7°
Reaches altitude 10° 21:00:05 10° 355° (N) 1,822 4.4 -25.1°
Enters shadow 21:02:08 17° 24° (NNE) 1,414 3.5 -25.4°
